Sheboygan Falls, WI

6:01 AM CST on February 11, 2016 (GMT -0600)
Sheboygan County Memorial

Weather History for KSBM - July, 2013

Change the Weather History Date:

Tuesday, July 23, 2013

  Actual Average Record
Temperature  
Mean Temperature 65 °F -  
Max Temperature 77 °F 81 °F 100 °F (2012)
Min Temperature 52 °F 61 °F 44 °F (2000)
Growing Degree Days 15 (Base 50)    
Moisture  
Dew Point 57 °F    
Average Humidity 70    
Maximum Humidity 97    
Minimum Humidity 53    
Precipitation  
Precipitation 0.00 in - - ()
Sea Level Pressure  
Sea Level Pressure 29.84 in    
Wind  
Wind Speed 11 mph (North)    
Max Wind Speed 16 mph    
Max Gust Speed 23 mph    
Visibility 10 miles    
Events      
Averages and records for this station are not official NWS values.
T = Trace of Precipitation, MM = Missing Value Source: NWS Daily Summary

Daily Weather History Graph

Daily Weather History Graph

Search for Another Location

Airport or City:

Trip Planner

Search our weather history database for the weather conditions in past years. The results will help you decide how hot, cold, wet, or windy it might be!

Date:

Astronomy

Jul. 23, 2013 Rise Set
Actual Time 5:31 AM CDT 8:24 PM CDT
Civil Twilight 4:57 AM CDT 8:57 PM CDT
Nautical Twilight 4:14 AM CDT 9:40 PM CDT
Astronomical Twilight 3:23 AM CDT 10:30 PM CDT
Moon 8:46 PM CDT (7/23) 6:43 AM CDT (7/23)
Length of Visible Light 16h 00m
Length of Day
14h 53m
Full, 99% of the Moon is Illuminated
Jul 23
Full
Jul 29
Last Quarter
Aug 6
New
Aug 14
First Quarter
Aug 20
Full

Hourly Weather History & Observations

Time (CDT) Temp. Dew Point Humidity Pressure Visibility Wind Dir Wind Speed Gust Speed Precip Events Conditions
12:53 AM 75.0 °F 70.0 °F 84% 29.66 in 10.0 mi WSW 16.1 mph 20.7 mph N/A   Clear
1:53 AM 75.9 °F 66.0 °F 71% 29.66 in 10.0 mi WNW 12.7 mph - N/A   Clear
2:53 AM 73.0 °F 68.0 °F 84% 29.68 in 10.0 mi WNW 9.2 mph - N/A   Scattered Clouds
3:03 AM 73.4 °F 66.2 °F 78% 29.71 in 10.0 mi North 9.2 mph 18.4 mph N/A   Mostly Cloudy
3:53 AM 69.1 °F 60.1 °F 73% 29.71 in 10.0 mi NNW 12.7 mph - N/A   Overcast
4:06 AM 69.8 °F 59.0 °F 68% 29.73 in 10.0 mi NNW 10.4 mph - N/A   Overcast
4:53 AM 68.0 °F 57.9 °F 70% 29.73 in 10.0 mi North 6.9 mph - N/A   Overcast
5:53 AM 66.9 °F 57.0 °F 70% 29.76 in 10.0 mi NNW 9.2 mph - N/A   Overcast
6:53 AM 66.0 °F 55.9 °F 70% 29.77 in 10.0 mi NNW 10.4 mph - N/A   Overcast
7:53 AM 68.0 °F 55.0 °F 63% 29.78 in 10.0 mi North 12.7 mph - N/A   Partly Cloudy
8:53 AM 69.1 °F 55.9 °F 63% 29.81 in 10.0 mi North 13.8 mph - N/A   Clear
9:53 AM 69.1 °F 57.0 °F 65% 29.83 in 10.0 mi North 11.5 mph 19.6 mph N/A   Mostly Cloudy
10:53 AM 68.0 °F 55.0 °F 63% 29.84 in 10.0 mi North 9.2 mph 18.4 mph N/A   Mostly Cloudy
11:53 AM 70.0 °F 54.0 °F 57% 29.88 in 10.0 mi NNW 15.0 mph 19.6 mph N/A   Overcast
12:53 PM 71.1 °F 54.0 °F 55% 29.88 in 10.0 mi North 10.4 mph 20.7 mph N/A   Mostly Cloudy
1:53 PM 71.1 °F 53.1 °F 53% 29.89 in 10.0 mi North 9.2 mph 23.0 mph N/A   Mostly Cloudy
2:53 PM 69.1 °F 52.0 °F 54% 29.91 in 10.0 mi North 8.1 mph 19.6 mph N/A   Overcast
3:53 PM 66.0 °F 53.1 °F 63% 29.92 in 10.0 mi NE 13.8 mph 18.4 mph N/A   Mostly Cloudy
4:53 PM 66.9 °F 53.1 °F 61% 29.93 in 10.0 mi ENE 10.4 mph - N/A   Scattered Clouds
5:53 PM 66.0 °F 55.0 °F 68% 29.93 in 10.0 mi NE 11.5 mph - N/A   Clear
6:53 PM 64.0 °F 54.0 °F 70% 29.92 in 10.0 mi NE 11.5 mph - N/A   Clear
7:53 PM 61.0 °F 54.0 °F 78% 29.95 in 10.0 mi NE 8.1 mph - N/A   Clear
8:53 PM 57.9 °F 53.1 °F 84% 29.96 in 10.0 mi NNE 6.9 mph - N/A   Clear
9:53 PM 57.0 °F 52.0 °F 83% 29.99 in 10.0 mi NNE 4.6 mph - N/A   Clear
10:53 PM 55.0 °F 51.1 °F 86% 30.01 in 10.0 mi North 3.5 mph - N/A   Clear
11:53 PM 52.0 °F 51.1 °F 97% 30.02 in 10.0 mi Calm Calm - N/A   Clear